User: anonymous   Login
Location: Albany
(35.0000°S, 118.0000°E)
Time: 18:20:29
(UTC-04:00)
Language:

Radarsat Rocket - Orbit

View from above orbital plane
View from above orbital plane
View from above satellite
View from above satellite

Ground track
Ground track

The orbit data is extracted from the following two-line orbital elements,

1 23711U 95059B   17114.96863041 -.00000005 +00000-0 +74938-4 0  9994
2 23711 100.5586 105.2104 0368604 079.0462 341.2274 13.12693791028633
Epoch (UTC): 24 April 2017 23:14:49
Eccentricity: 0.0368604
inclination: 100.5586°
perigee height: 933 km
apogee height: 1492 km
right ascension of ascending node: 105.2104°
argument of perigee: 79.0462°
revolutions per day: 13.12693791
mean anomaly at epoch: 341.2274°
orbit number at epoch: 2863

The dashed part of the orbit path shows where the satellite is in the earth's shadow,  

DLR